• In Hungary
  • List of Countries
  • For 7 days
  • Water Temperature
  • Satellite Maps
  • Weather Map
  • News
  • Weather Widgets
  • user-avatar
    Login

    Hourly Weather Ojmjakon

    Today, 25 June, Monday

    Time Temperature Precipitation Wind Pressure Humidity
    00:00 +10°C° 0 mm 1 mps 651 mmHg 63%
    01:00 +10°C° 0 mm 1 mps 651 mmHg 64%
    02:00 +10°C° 0 mm 1 mps 651 mmHg 64%
    03:00 +9°C° 0 mm 0 mps 651 mmHg 65%
    04:00 +12°C° 0 mm 1 mps 651 mmHg 58%
    05:00 +13°C° 0 mm 1 mps 652 mmHg 51%
    06:00 +15°C° 0 mm 1 mps 652 mmHg 44%
    07:00 +16°C° 0 mm 1 mps 652 mmHg 41%
    08:00 +18°C° 0 mm 1 mps 652 mmHg 38%
    09:00 +19°C° 0 mm 1 mps 652 mmHg 36%
    10:00 +20°C° 0 mm 1 mps 652 mmHg 33%
    11:00 +21°C° 0 mm 1 mps 652 mmHg 31%
    12:00 +21°C° 0 mm 1 mps 652 mmHg 28%
    13:00 +22°C° 0 mm 1 mps 651 mmHg 27%
    14:00 +22°C° 0 mm 1 mps 651 mmHg 26%
    15:00 +23°C° 0 mm 1 mps 651 mmHg 25%
    16:00 +23°C° 0 mm 1 mps 651 mmHg 25%
    17:00 +23°C° 0 mm 1 mps 651 mmHg 26%
    18:00 +23°C° 0 mm 1 mps 651 mmHg 26%
    19:00 +20°C° 0 mm 1 mps 650 mmHg 32%
    20:00 +18°C° 0 mm 1 mps 649 mmHg 38%
    21:00 +15°C° 0 mm 1 mps 649 mmHg 44%
    22:00 +14°C° 0 mm 1 mps 649 mmHg 45%
    23:00 +13°C° 0 mm 1 mps 648 mmHg 46%

    Tomorrow, 26 June, Tuesday

    Time Temperature Precipitation Wind Pressure Humidity
    00:00 +13°C° 0 mm 1 mps 648 mmHg 46%
    01:00 +13°C° 0 mm 1 mps 648 mmHg 47%
    02:00 +13°C° 0 mm 1 mps 648 mmHg 48%
    03:00 +13°C° 0 mm 1 mps 648 mmHg 49%
    04:00 +15°C° 0 mm 1 mps 649 mmHg 43%
    05:00 +18°C° 0 mm 1 mps 649 mmHg 38%
    06:00 +20°C° 0 mm 1 mps 649 mmHg 33%
    07:00 +21°C° 0 mm 1 mps 649 mmHg 31%
    08:00 +22°C° 0 mm 1 mps 649 mmHg 30%
    09:00 +21°C° 0 mm 0 mps 649 mmHg 28%
    10:00 +21°C° 0 mm 0 mps 649 mmHg 27%
    11:00 +23°C° 0 mm 1 mps 649 mmHg 27%
    12:00 +24°C° 0 mm 1 mps 649 mmHg 26%
    13:00 +24°C° 0 mm 1 mps 649 mmHg 26%
    14:00 +24°C° 0 mm 1 mps 649 mmHg 26%
    15:00 +24°C° 0 mm 2 mps 649 mmHg 26%
    16:00 +24°C° 0 mm 2 mps 648 mmHg 27%
    17:00 +24°C° 0 mm 2 mps 648 mmHg 28%
    18:00 +23°C° 0 mm 2 mps 648 mmHg 30%
    19:00 +20°C° 0.1 mm 3 mps 648 mmHg 36%
    20:00 +18°C° 0.1 mm 3 mps 647 mmHg 43%
    21:00 +17°C° 0.1 mm 3 mps 647 mmHg 49%
    22:00 +14°C° 0.2 mm 3 mps 646 mmHg 56%
    23:00 +13°C° 0.2 mm 3 mps 646 mmHg 62%

    Day after tomorrow, 27 June, Wednesday

    Time Temperature Precipitation Wind Pressure Humidity
    00:00 +12°C° 0.2 mm 3 mps 646 mmHg 69%
    01:00 +13°C° 0.1 mm 2 mps 646 mmHg 72%
    02:00 +12°C° 0.1 mm 2 mps 646 mmHg 75%
    03:00 +12°C° 0.1 mm 1 mps 645 mmHg 79%
    04:00 +13°C° 0.2 mm 2 mps 645 mmHg 75%
    05:00 +14°C° 0.2 mm 2 mps 646 mmHg 71%
    06:00 +15°C° 0.2 mm 2 mps 646 mmHg 67%
    07:00 +16°C° 0.8 mm 2 mps 646 mmHg 62%
    08:00 +17°C° 0.8 mm 2 mps 646 mmHg 57%
    09:00 +18°C° 0.8 mm 3 mps 646 mmHg 53%
    10:00 +18°C° 0.6 mm 3 mps 646 mmHg 51%
    11:00 +19°C° 0.6 mm 3 mps 646 mmHg 49%
    12:00 +19°C° 0.6 mm 4 mps 646 mmHg 47%
    13:00 +19°C° 0.2 mm 4 mps 645 mmHg 46%
    14:00 +19°C° 0.2 mm 4 mps 645 mmHg 45%
    15:00 +19°C° 0.2 mm 4 mps 645 mmHg 44%
    16:00 +19°C° 0.1 mm 4 mps 645 mmHg 45%
    17:00 +19°C° 0.1 mm 4 mps 645 mmHg 45%
    18:00 +19°C° 0.1 mm 4 mps 645 mmHg 45%
    19:00 +17°C° 0.2 mm 4 mps 645 mmHg 52%
    20:00 +16°C° 0.2 mm 3 mps 645 mmHg 59%
    21:00 +13°C° 0.2 mm 3 mps 645 mmHg 66%
    22:00 +12°C° 0.2 mm 3 mps 645 mmHg 70%
    23:00 +11°C° 0.2 mm 3 mps 644 mmHg 74%

    28 June, Thursday

    Time Temperature Precipitation Wind Pressure Humidity
    00:00 +10°C° 0.2 mm 2 mps 644 mmHg 79%
    01:00 +10°C° 0 mm 2 mps 644 mmHg 79%
    02:00 +10°C° 0 mm 2 mps 645 mmHg 79%
    03:00 +10°C° 0 mm 2 mps 645 mmHg 79%
    04:00 +10°C° 0.1 mm 2 mps 645 mmHg 77%
    05:00 +11°C° 0.1 mm 3 mps 645 mmHg 76%
    06:00 +11°C° 0.1 mm 3 mps 645 mmHg 74%
    07:00 +11°C° 0.2 mm 3 mps 646 mmHg 73%
    08:00 +11°C° 0.2 mm 4 mps 646 mmHg 72%
    09:00 +11°C° 0.2 mm 4 mps 646 mmHg 71%
    10:00 +12°C° 0.2 mm 4 mps 646 mmHg 69%
    11:00 +12°C° 0.2 mm 3 mps 646 mmHg 66%
    12:00 +12°C° 0.2 mm 3 mps 646 mmHg 64%
    13:00 +13°C° 0 mm 3 mps 647 mmHg 60%
    14:00 +14°C° 0 mm 3 mps 647 mmHg 55%
    15:00 +16°C° 0 mm 2 mps 647 mmHg 51%
    16:00 +16°C° 0 mm 2 mps 647 mmHg 51%
    17:00 +15°C° 0 mm 2 mps 647 mmHg 51%
    18:00 +15°C° 0 mm 2 mps 648 mmHg 51%
    19:00 +14°C° 0 mm 2 mps 648 mmHg 55%
    20:00 +13°C° 0 mm 2 mps 647 mmHg 59%
    21:00 +11°C° 0 mm 3 mps 647 mmHg 63%
    22:00 +10°C° 0 mm 2 mps 647 mmHg 65%
    23:00 +9°C° 0 mm 2 mps 647 mmHg 67%

    29 June, Friday

    Time Temperature Precipitation Wind Pressure Humidity
    00:00 +9°C° 0 mm 2 mps 647 mmHg 70%
    01:00 +8°C° 0.1 mm 2 mps 647 mmHg 72%
    02:00 +8°C° 0.1 mm 2 mps 648 mmHg 74%
    03:00 +8°C° 0.1 mm 2 mps 648 mmHg 76%
    04:00 +8°C° 0.1 mm 2 mps 648 mmHg 75%
    05:00 +9°C° 0.1 mm 2 mps 648 mmHg 74%
    06:00 +9°C° 0.1 mm 3 mps 648 mmHg 73%
    07:00 +10°C° 0.1 mm 3 mps 649 mmHg 70%
    08:00 +10°C° 0.1 mm 3 mps 649 mmHg 66%
    09:00 +11°C° 0.1 mm 3 mps 649 mmHg 63%
    10:00 +12°C° 0.1 mm 3 mps 649 mmHg 61%
    11:00 +12°C° 0.1 mm 3 mps 650 mmHg 58%
    12:00 +12°C° 0.1 mm 3 mps 650 mmHg 56%
    13:00 +12°C° 0.2 mm 3 mps 650 mmHg 56%
    14:00 +12°C° 0.2 mm 3 mps 650 mmHg 56%
    15:00 +12°C° 0.2 mm 3 mps 650 mmHg 55%
    16:00 +12°C° 0.1 mm 3 mps 650 mmHg 56%
    17:00 +12°C° 0.1 mm 3 mps 649 mmHg 57%
    18:00 +13°C° 0.1 mm 2 mps 649 mmHg 58%
    19:00 +12°C° 0.1 mm 2 mps 649 mmHg 63%
    20:00 +10°C° 0.1 mm 2 mps 649 mmHg 68%
    21:00 +9°C° 0.1 mm 2 mps 649 mmHg 72%
    22:00 +8°C° 0.2 mm 2 mps 649 mmHg 74%
    23:00 +7°C° 0.2 mm 2 mps 649 mmHg 75%

    30 June, Saturday

    Time Temperature Precipitation Wind Pressure Humidity
    00:00 +7°C° 0.2 mm 2 mps 649 mmHg 76%
    01:00 +7°C° 0.3 mm 2 mps 649 mmHg 77%
    02:00 +6°C° 0.3 mm 2 mps 649 mmHg 79%
    03:00 +6°C° 0.3 mm 2 mps 649 mmHg 80%
    04:00 +6°C° 0.6 mm 2 mps 649 mmHg 80%
    05:00 +7°C° 0.6 mm 2 mps 649 mmHg 79%
    06:00 +7°C° 0.6 mm 2 mps 649 mmHg 79%
    07:00 +7°C° 0.5 mm 2 mps 650 mmHg 78%
    08:00 +8°C° 0.5 mm 2 mps 650 mmHg 77%
    09:00 +8°C° 0.5 mm 2 mps 650 mmHg 77%
    10:00 +9°C° 0.2 mm 2 mps 650 mmHg 74%
    11:00 +10°C° 0.2 mm 2 mps 650 mmHg 72%
    12:00 +12°C° 0.2 mm 2 mps 650 mmHg 69%
    13:00 +13°C° 0.2 mm 2 mps 650 mmHg 65%
    14:00 +14°C° 0.2 mm 2 mps 651 mmHg 61%
    15:00 +14°C° 0.2 mm 2 mps 651 mmHg 57%
    16:00 +14°C° 0.5 mm 2 mps 651 mmHg 58%
    17:00 +14°C° 0.5 mm 2 mps 651 mmHg 58%
    18:00 +14°C° 0.5 mm 2 mps 651 mmHg 58%
    19:00 +13°C° 0.2 mm 1 mps 651 mmHg 65%
    20:00 +11°C° 0.2 mm 1 mps 651 mmHg 71%
    21:00 +10°C° 0.2 mm 1 mps 650 mmHg 77%
    22:00 +9°C° 0.1 mm 1 mps 650 mmHg 79%
    23:00 +8°C° 0.1 mm 1 mps 650 mmHg 81%
    Show more